EHI
0 0 0 0 0 0 0 0 0 0 0 0 0 0 0 0 0 0 0 0 0 0 0 0 0 0 0 0 0 0 0 0 0 0 0 0 0 0 0 0 0 0 0
0 0 0 0 0 0 0 0 0 0 0 0 0 0 0 0 0 0 0 0 0 0 0 0 0 0 0 0 0 0 0 0 0 0 0 0 0 0 0 0 0 0 0
0 0 0 0 0 0 0 0 0 0 0 0 0 0 0 0 0 0 0 0 0 0 0 0 0 0 0 0 0 0 0 0 0 0 0 0 0 0 0 0 0 0 0
0 0 0 0 0 0 0 0 0 0 0 0 0 0 0 0 0 0 0 0 0 0 0 0 0 0 0 0 0 0 0 0 0 0 0 0 0 0 0 0 0 0 0
0 0 0 0 0 0 0 0 0 0 0 0 0 0 0 0 0 0 0 0 0 0 0 0 0 0 0 0 0 0 0 0 0 0 0 0 0 0 0 0 0 0 0
0 0 0 0 0 0 0 0 0 0 0 0 0 0 0 0 0 0 0 0 0 0 0 0 0 0 0 0 0 0 0 0 0 0 0 0 0 0 0 0 0 0 0
0 0 0 0 0 0 0 0 0 0 0 0 0 0 0 0 0 0 0 0 0 0 0 0 0 0 0 0 0 0 0 0 0 0 0 0 0 0 0 0 0 0 0
0 0 0 0 0 0 0 0 0 0 0 0 0 0 0 0 0 0 0 0 0 0 0 0 0 0 0 0 0 0 0 0 0 0 0 0 0 0 0 0 0 0 0
0 0 0 0 0 0 0 0 0 0 0 0 0 0 0 0 0 0 0 0 0 0 0 0 0 0 0 0 0 0 0 0 0 0 0 0 0 0 0 0 0 0 0
0 0 0 0 0 0 0 0 0 0 0 0 0 0 0 0 0 0 0 0 0 0 0 0 0 0 0 0 0 0 0 0 0 0 0 0 0 0 0 0 0 0 0
0 0 0 0 0 0 0 0 0 0 0 0 0 0 0 0 0 0 0 0 0 0 0 0 0 0 0 0 0 0 0 0 0 0 0 0 0 0 0 0 0 0 0
0 0 0 0 0 0 0 0 0 0 0 0 0 0 0 0 0 0 0 0 0 0 0 0 0 0 0 0 0 0 0 0 0 0 0 0 0 0 0 0 0 0 0
0 0 0 0 0 0 0 0 0 0 0 0 0 0 0 0 0 0 0 0 0 0 0 0 0 0 0 0 0 0 0 0 0 0 0 0 0 0 0 0 0 0 0
0 0 0 0 0 0 0 0 0 0 0 0 0 0 0 0 0 0 0 0 0 0 0 0 0 0 0 0 0 0 0 0 0 0 0 0 0 0 0 0 0 0 0
0 0 0 0 0 0 0 0 0 0 0 0 0 0 0 0 0 0 0 0 0 0 0 0 0 0 0 0 0 0 0 0 0 0 0 0 0 0 0 0 0 0 0
0 0 0 0 0 0 0 0 0 0 0 0 0 0 0 0 0 0 0 0 0 0 0 0 0 0 0 0 0 0 0 0 0 0 0 0 0 0 0 0 0 0 0
0 0 0 0 0 0 0 0 0 0 0 0 0 0 0 0 0 0 0 0 0 0 0 0 0 0 0 0 0 0 0 0 0 0 0 0 0 0 0 0 0 0 0
0 0 0 0 0 0 0 0 0 0 0 0 0 0 0 0 0 0 0 0 0 0 0 0 0 0 0 0 0 0 0 0 0 0 0 0 0 0 0 0 0 0 0
0 0 0 0 0 0 0 0 0 0 0 0 0 0 0 0 0 0 0 0 0 0 0 0 0 0 0 0 0 0 0 0 0 0 0 0 0 0 0 0 0 0 0
0 0 0 0 0 0 0 0 0 0 0 0 0 0 0 0 0 0 0 0 0 0 0 0 0 0 0 0 0 0 0 0 0 0 0 0 0 0 0 0 0 0 0
0 0 0 0 0 0 0 0 0 0 0 0 0 0 0 0 0 0 0 0 0 0 0 0 0 0 0 0 0 0 0 0 0 0 0 0 0 0 0 0 0 0 0
0 0 0 0 0 0 0 0 0 0 0 0 0 0 0 0 0 0 0 0 0 0 0 0 0 0 0 0 0 0 0 0 0 0 0 0 0 0 0 0 0 0 0
0 0 0 0 0 0 0 0 0 0 0 0 0 0 0 0 0 0 0 0 0 0 0 0 0 0 0 0 0 0 0 0 0 0 0 0 0 0 0 0 0 0 0
0 0 0 0 0 0 0 0 0 0 0 0 0 0 0 0 0 0 0 0 0 0 0 0 0 0 0 0 0 0 0 0 0 0 0 0 0 0 0 0 0 0 0
0 0 0 0 0 0 0 0 0 0 0 0 0 0 0 0 0 0 0 0 0 0 0 0 0 0 0 0 0 0 0 0 0 0 0 0 0 0 0 0 0 0 0
0 0 0 0 0 0 0 0 0 0 0 0 0 0 0 0 0 0 0 0 0 0 0 0 0 0 0 0 0 0 0 0 0 0 0 0 0 0 0 0 0 0 0
Wind_Speed
1 1 1 1 1 0 0 0 0 0 1 2 2 3 3 3 3 3 2 3 3 3 3 3 3 2 2 2 2 2 2 2 4 4 2 2 2 3 3 3 3 3 4
1 1 1 1 1 1 0 0 0 0 1 1 1 2 2 3 3 3 3 4 4 4 4 4 4 3 3 3 2 3 3 3 4 5 3 2 3 3 3 3 3 3 3
1 1 1 1 1 1 1 1 1 1 1 1 1 2 3 3 3 3 3 4 4 4 4 4 4 4 4 3 3 3 3 3 3 4 5 3 2 2 2 3 3 3 4
1 1 1 2 1 1 1 1 1 1 1 1 2 2 3 3 3 3 3 3 3 4 4 4 4 5 5 5 4 4 4 3 3 4 4 3 2 2 2 2 3 3 3
2 2 2 2 2 1 1 1 1 1 2 2 2 2 3 3 3 4 4 4 4 4 4 4 5 6 7 6 5 5 5 4 4 4 4 3 3 2 3 2 3 2 3
2 2 2 2 2 2 1 1 1 1 2 2 2 3 3 3 5 6 5 4 4 4 4 4 5 6 8 10 10 9 8 6 6 5 5 5 5 4 3 3 3 2 4
2 2 2 2 2 2 2 2 2 2 2 2 3 3 3 4 7 7 7 4 4 5 5 4 4 5 7 5 7 10 9 11 11 7 7 7 6 5 4 4 4 4 5
2 2 2 2 2 2 2 2 2 2 2 2 3 3 3 5 7 8 8 5 4 5 5 5 5 5 6 6 5 6 6 7 8 7 6 6 6 5 6 6 5 4 3
2 2 2 2 2 2 2 2 3 2 3 3 3 3 4 5 8 8 8 4 4 5 5 6 6 6 9 10 7 6 6 6 9 11 11 10 10 9 7 3 3 3 4
2 3 2 2 2 3 3 3 3 3 3 3 4 3 4 5 8 9 8 4 4 4 5 6 8 9 10 10 6 5 7 6 5 6 7 7 6 7 9 6 5 5 4
2 2 2 2 2 3 3 2 3 3 3 3 4 4 4 5 7 9 9 4 4 4 5 4 5 10 11 11 9 6 8 7 5 5 4 4 4 4 5 4 4 5 5
1 2 2 2 3 3 2 2 2 3 3 3 4 4 3 4 6 7 9 8 7 5 5 4 5 10 11 11 8 8 10 8 4 4 4 4 4 4 4 4 4 5 5
1 2 2 3 3 3 2 2 2 2 3 3 3 4 4 3 4 8 9 10 10 6 5 7 9 10 10 7 10 10 7 4 4 4 4 4 4 4 3 3 3 3 4
2 3 3 3 3 2 3 3 2 2 3 3 4 4 4 3 3 3 4 5 7 6 5 7 10 10 8 7 7 5 4 4 4 4 4 3 2 2 3 3 3 3 3
3 3 3 3 3 3 3 3 3 3 4 4 4 4 4 4 6 9 6 4 4 4 4 3 3 3 3 3 3 3 3 3 3 3 3 3 3 3 3 3 3 3 4
3 3 2 2 2 2 3 3 5 6 8 9 9 8 7 9 11 11 11 11 10 9 5 3 4 3 3 3 3 3 3 3 3 3 3 3 3 3 3 3 3 4 4
3 3 3 3 3 3 3 3 4 5 7 9 10 10 10 11 11 11 11 11 10 8 4 3 3 3 3 3 3 3 3 3 2 3 3 3 3 3 3 3 3 4 4
3 4 4 3 3 3 3 3 3 4 4 5 7 9 11 11 11 11 10 7 5 4 3 3 3 3 3 3 3 3 2 2 2 2 2 3 3 3 3 4 4 4 4
3 3 3 3 3 3 3 3 3 4 4 4 4 5 8 9 10 10 8 3 3 3 3 3 3 3 3 3 3 3 3 2 2 2 2 3 3 3 4 4 4 6 5
3 6 5 3 3 3 3 3 3 3 3 4 4 4 5 5 4 4 4 3 3 3 3 3 3 3 3 2 2 2 2 2 2 2 3 3 3 3 4 4 4 4 4
3 4 6 4 3 3 3 3 3 3 3 4 4 6 8 4 4 4 4 3 3 3 3 3 3 3 2 2 2 2 3 3 3 3 3 3 3 3 3 4 4 4 4
2 3 3 3 3 3 3 3 3 3 4 4 4 5 9 5 3 4 4 3 3 3 3 2 2 2 2 2 2 2 3 3 3 3 3 3 3 3 4 4 4 3 3
3 3 3 3 3 5 4 3 3 3 4 4 4 4 4 4 4 4 4 3 3 3 3 2 3 3 2 2 2 3 3 4 3 3 3 4 4 4 4 4 5 4 4
3 3 3 3 3 3 3 3 3 3 4 4 4 4 4 4 4 4 4 3 3 3 3 2 3 4 4 3 3 3 3 4 4 4 5 5 5 4 4 4 5 5 5
2 2 3 3 3 3 3 3 3 4 4 4 4 4 4 4 4 4 3 3 3 4 4 4 3 4 5 5 4 4 7 9 8 5 4 4 5 5 5 5 5 5 4
2 3 3 3 3 3 3 3 4 4 4 4 4 4 4 4 4 4 3 3 4 4 4 4 4 5 5 5 5 7 9 9 9 9 5 3 4 4 4 4 5 4 4
Wind_Direction
17 335 327 307 313 311 188 263 292 289 244 207 204 209 211 218 224 221 229 231 228 237 240 236 241 244 239 246 242 237 248 243 255 269 271 246 228 241 252 247 241 241 248
339 317 310 315 318 298 256 277 312 295 269 252 219 218 224 225 226 226 235 239 233 231 237 240 242 242 238 241 240 242 244 245 251 269 274 242 234 232 234 241 255 259 257
352 335 323 309 301 294 296 313 323 299 290 281 250 234 234 231 234 236 236 242 245 241 234 235 241 236 237 238 237 240 244 252 250 258 272 255 240 235 239 254 254 255 263
338 317 303 295 286 296 317 324 312 298 288 281 270 260 247 238 241 241 242 241 247 253 247 240 240 236 237 232 234 234 237 241 244 248 263 256 242 235 219 237 257 241 256
341 320 303 313 316 308 308 301 298 298 295 292 283 280 272 247 239 240 241 241 242 249 252 249 247 248 251 247 242 232 228 232 237 245 258 257 245 229 229 232 249 259 260
327 314 317 316 315 301 287 288 280 283 287 287 282 276 275 268 261 256 254 241 242 242 249 251 252 252 254 256 258 254 243 236 234 236 249 246 248 241 239 237 242 256 262
308 307 306 303 301 292 284 282 271 273 277 276 274 270 268 276 275 265 261 255 247 249 248 248 257 257 264 253 259 261 258 255 249 241 243 242 242 233 229 237 235 238 255
293 297 297 294 292 295 284 277 277 275 271 271 276 273 276 279 281 281 274 260 251 250 249 248 247 251 254 255 250 253 251 253 252 247 244 247 242 231 222 230 238 254 272
286 289 287 284 284 288 280 278 282 280 274 268 271 266 265 275 279 282 280 263 253 254 255 251 249 245 256 261 254 250 256 258 262 256 256 257 257 258 248 229 226 236 259
278 285 293 289 279 278 274 277 281 276 271 273 275 269 264 266 273 276 276 259 255 256 258 256 257 257 261 262 249 241 250 254 256 262 262 262 255 250 249 229 215 225 243
286 298 300 293 284 281 276 274 275 277 280 277 276 277 269 269 275 275 276 261 250 253 256 256 257 264 265 266 264 248 253 259 250 245 244 248 246 237 233 229 225 223 227
294 295 294 293 290 292 278 277 277 273 275 275 273 275 271 272 277 277 279 275 271 257 259 261 260 268 270 273 270 266 266 265 248 241 243 241 240 241 241 235 238 242 241
291 284 287 291 291 289 279 272 273 267 264 271 271 273 277 276 276 284 285 285 284 268 263 270 274 275 275 274 272 271 265 254 238 234 240 243 242 243 247 247 249 249 255
286 286 284 282 285 287 281 273 266 260 259 267 271 275 282 287 283 276 272 279 283 278 271 273 279 279 276 274 273 270 256 245 240 239 242 248 248 241 241 237 241 237 249
281 282 284 280 280 281 280 275 274 260 257 264 259 260 269 273 276 280 280 274 268 267 278 272 271 273 258 259 263 261 251 247 249 247 248 251 253 251 252 244 237 237 242
283 285 284 285 281 279 284 295 294 285 287 284 280 277 274 278 286 285 286 289 291 289 283 270 268 264 262 263 262 259 255 249 246 249 252 253 253 253 254 251 243 236 243
273 284 285 285 283 281 281 284 296 303 296 294 292 291 289 290 294 293 292 292 293 296 277 266 262 261 262 262 259 257 257 258 254 246 248 254 256 254 254 250 247 248 248
275 280 284 280 281 282 281 282 284 292 302 303 299 299 303 303 302 299 299 299 292 287 270 266 264 262 261 260 260 264 267 267 261 256 256 254 252 251 251 250 245 244 252
277 272 272 273 274 277 280 281 282 285 289 299 307 309 312 314 314 313 310 285 273 275 277 276 272 269 270 266 260 258 257 259 260 258 257 258 259 258 256 254 250 255 259
272 281 285 278 272 274 275 275 276 279 285 291 297 303 310 310 309 313 313 301 284 274 274 275 278 277 274 269 265 261 260 260 258 256 255 254 254 254 256 258 255 251 251
270 276 287 291 279 276 274 273 274 275 278 282 287 294 302 299 295 296 295 293 286 277 271 268 271 272 267 269 269 266 263 261 257 255 257 255 255 259 260 259 257 253 252
266 266 269 272 276 276 274 270 275 276 278 282 289 296 302 305 298 294 293 292 291 285 275 268 269 266 257 254 254 258 263 261 254 250 253 255 255 257 259 259 258 251 246
263 268 272 273 274 281 289 283 274 273 276 280 285 290 294 293 293 292 292 293 296 297 292 282 278 278 271 256 245 236 244 254 255 247 246 251 252 251 252 252 250 244 241
262 264 269 273 272 269 271 276 275 275 276 277 278 280 283 285 286 288 290 293 295 295 291 282 277 282 281 274 263 251 247 253 250 241 232 235 243 249 249 247 248 240 237
264 268 271 271 271 269 269 271 272 274 276 277 275 278 281 283 283 284 285 285 284 285 286 283 282 280 279 275 273 267 270 273 271 259 235 231 235 240 241 242 244 239 237
259 263 265 268 268 268 268 270 272 273 274 277 277 276 277 278 279 282 285 286 286 285 284 283 285 285 285 281 275 274 278 278 276 275 260 233 228 237 238 243 241 235 234